Weather in Cachoeiro de Itapemirim

Brazil     20°50′54″S   41°07′13″W
temp.,
°C
wind,
m/s
gust,
m/s
humid.,
%
clouds,
%
prec.,
mm/h
press.,
hPa
HPBL,
m
21 april, wed
wed2100:00+18nnw218757 0.0 101320
03:00+17nnw22890 0.0 101230
06:00+16nnw22870 0.0 101334
09:00+23w24550 0.0 1014559
12:00+26w24450 0.0 10121217
15:00+27wsw35470 0.0 10111666
18:00+20nnw11800 0.0 101313
21:00+18ese11890 0.0 101513
22 april, thu
thu2200:00+17nne11965 0.0 101615
03:00+17nne11973 0.0 101413
06:00+16nnw11972 0.0 101514
09:00+22wsw22690 0.0 1016595
12:00+26sw22560 0.0 10141282
15:00+26sse235813 0.6 10121173
18:00+18e219633 1.7 101535
21:00+18e119663 2.0 101715
23 april, fri
fri2300:00+18ssw019782 0.1 101728
03:00+17nnw009736 0.1 101620
06:00+16nnw119637 0.0 101714
09:00+22ssw117315 0.0 1018605
12:00+25ssw126271 0.1 10161118
15:00+24ese216963 0.3 1013603
18:00+18ese229518 0.4 101552
21:00+17nne22988 0.4 101737
24 april, sat
sat2400:00+17nnw11975 0.0 101615
03:00+16nnw11971 0.0 101516
06:00+16n21950 0.0 101619
09:00+23w11680 0.0 1016509
12:00+28ssw235418 0.0 10141332
15:00+27se22597 0.1 1012930
18:00+20e11945 0.1 101322
21:00+19n11952 0.1 101415
25 april, sun
sun2500:00+19nnw11940 0.1 101414
03:00+18nnw22950 0.1 101326
06:00+18nnw11940 0.0 101417
09:00+25wsw116558 0.0 1015532
12:00+29ssw2253100 0.0 10121348
15:00+28se226398 0.2 1011821
18:00+21ne1293100 0.7 101228
21:00+20n228942 0.9 101431